Weather in Majorda

India     15°22′22″N   73°53′25″E
temp.,
°C
wind,
m/s
gust,
m/s
humid.,
%
clouds,
%
prec.,
mm/h
press.,
hPa
HPBL,
m
25 february, thu
thu2523:30+24e11810 0.0 101251
02:30+23e11870 0.0 101136
05:30+22e11860 0.0 101035
08:30+27ese11670 0.0 1014206
11:30+34w22370 0.0 10141189
14:30+32w55480 0.0 1010700
17:30+30wnw34600 0.0 1009628
20:30+25nnw23800 0.0 1011107
26 february, fri
fri2623:30+23n12840 0.0 101180
02:30+22nne128710 0.0 101069
05:30+21ese11885 0.0 100947
08:30+26ne11630 0.0 1012175
11:30+34wnw33307 0.0 1012885
14:30+33wnw66361 0.0 1008658
17:30+31nw69401 0.0 1007641
20:30+25nnw36600 0.0 1010210
27 february, sat
sat2723:30+23n23601 0.0 101095
02:30+22nne12600 0.0 100869
05:30+20nne12590 0.0 100759
08:30+26nne11400 0.0 1010155
11:30+34wnw32210 0.0 1010667
14:30+32wnw67390 0.0 1007473
17:30+30nw57510 0.0 1006610
20:30+25nw36750 0.0 1008229
28 february, sun
sun2823:30+23nne12800 0.0 100972
02:30+21nne11850 0.0 100760
05:30+20nne11850 0.0 100657
08:30+26se11530 0.0 1010147
11:30+34sw34280 0.0 1010907
14:30+33wsw56380 0.0 1006525
17:30+30w34530 0.0 1006559
20:30+24nne11850 0.0 100865
1 march, mon
mon123:30+23e11850 0.0 100946
02:30+22se11770 0.0 100837
05:30+22se22780 0.0 100865
08:30+27se11510 0.0 1011176
11:30+35ssw44340 0.0 1012901
14:30+32sw68530 0.0 1008616
17:30+30sw45600 0.0 1008608
20:30+25wsw01820 0.0 101192